Theta_e
306 303 300 297 295 298 299 297 295 293 292 289 290 289 289 289 288 287 287 287 287 288 288 288 288 289 290 290 291 291 292 293 294 294 294 295 296 297
302 300 296 295 296 294 293 293 292 291 292 289 288 288 288 288 287 287 287 286 286 287 287 287 288 288 289 289 290 291 291 292 292 293 294 294 295 296
298 295 294 293 293 292 290 290 291 292 290 289 290 290 288 287 287 287 286 286 286 285 286 286 287 287 288 289 289 290 290 291 291 292 292 293 294 295
292 293 293 293 292 292 292 292 290 290 289 289 287 286 286 287 287 286 286 286 285 285 285 286 286 287 287 288 288 289 289 290 290 291 292 292 293 293
294 294 293 292 292 291 290 291 291 290 289 286 286 285 286 286 286 285 285 285 284 284 284 284 285 286 286 287 288 288 288 288 289 289 289 290 290 291
294 293 292 292 292 291 291 289 288 287 286 286 286 286 285 285 285 284 285 285 284 284 283 284 284 285 285 285 286 286 286 286 287 288 288 288 289 290
291 292 292 291 290 289 288 288 288 287 287 286 286 286 286 285 285 285 284 284 284 283 284 284 283 283 283 283 284 284 284 285 286 287 288 288 289 289
291 290 289 288 286 286 287 287 287 287 287 286 286 286 286 285 284 284 284 284 284 284 283 283 283 283 283 283 283 284 285 285 286 287 287 288 288 289
288 286 284 284 284 284 284 285 286 286 286 286 286 285 285 284 284 284 284 283 283 283 283 283 283 283 283 282 283 283 284 285 286 286 287 287 287 288
283 283 284 284 284 284 284 285 284 284 285 285 284 284 283 284 284 283 283 283 282 282 282 282 283 283 282 282 282 282 283 284 285 286 286 287 287 288
284 284 284 283 282 284 285 285 285 284 284 283 283 283 283 283 282 282 282 282 281 281 281 281 281 282 281 281 281 282 283 284 284 284 284 285 286 286
284 283 282 283 284 285 286 285 283 282 282 282 282 281 280 281 281 280 280 280 280 280 281 280 281 281 281 282 282 281 281 281 282 282 283 284 284 285
282 282 282 283 285 285 284 282 282 282 282 282 280 280 280 280 280 280 279 279 279 279 280 280 280 280 280 280 280 281 280 280 280 281 281 281 282 283
283 283 283 284 283 282 281 281 281 281 280 279 279 280 280 280 280 280 280 280 279 279 281 278 277 278 279 279 280 280 280 280 280 280 280 281 282 282
283 283 281 281 279 278 278 279 279 278 278 279 279 279 279 279 280 281 281 280 279 280 280 280 278 278 277 278 279 279 280 281 280 280 280 281 281 281
281 281 279 278 277 277 278 278 278 278 278 279 278 278 278 279 279 279 278 279 277 279 280 280 279 278 278 278 278 279 279 280 280 281 281 281 281 281
280 278 277 277 277 277 277 278 278 278 278 277 277 276 277 277 278 279 279 277 278 279 279 281 280 279 278 278 279 279 280 280 281 281 281 281 282 282
277 276 276 276 276 277 277 277 278 278 277 276 276 275 276 276 277 279 279 279 278 279 279 279 280 279 280 281 281 280 281 282 283 283 283 283 284 284
276 276 276 276 276 277 277 276 276 277 277 277 276 277 276 276 276 278 278 279 279 280 280 280 280 281 283 283 283 283 284 284 285 284 284 284 285 285
276 276 276 277 277 277 277 276 277 277 277 277 277 277 276 276 276 277 278 279 280 281 282 282 282 282 283 283 284 284 284 284 284 285 285 285 285 285
276 276 277 277 277 277 277 277 277 277 277 276 277 278 278 276 276 277 278 281 282 282 282 282 283 283 283 282 285 285 285 285 285 285 285 285 286 286
275 276 277 277 277 277 277 277 278 278 278 278 279 279 278 277 277 277 279 280 282 282 282 282 282 283 284 284 286 286 286 285 285 285 285 285 286 288
275 276 276 277 277 277 277 278 277 278 278 278 278 278 278 277 278 278 279 280 281 282 282 283 285 284 285 285 285 285 285 285 285 285 285 286 286 286
Wind_Speed
35 27 23 19 15 14 9 9 6 4 4 7 6 8 10 10 11 17 19 20 20 18 20 22 24 24 24 25 26 27 28 28 28 29 30 30 30 30
29 26 23 19 14 14 11 11 11 5 2 2 3 3 7 13 17 17 18 20 19 21 22 23 24 24 25 26 26 27 28 29 29 30 31 31 31 32
26 26 22 18 16 11 11 8 6 6 4 5 8 12 17 18 18 19 21 21 20 22 24 25 25 24 24 26 26 28 28 29 30 31 31 32 31 32
27 25 21 18 15 10 7 7 6 5 7 4 7 12 16 17 18 20 20 21 19 23 26 27 26 24 24 24 25 26 27 28 29 30 30 30 31 31
22 18 15 13 12 10 7 5 4 5 8 8 8 10 16 17 17 16 17 17 19 23 25 25 23 22 22 22 24 26 28 29 30 31 32 33 33 33
18 15 12 10 8 6 3 3 5 5 7 11 11 12 9 12 17 15 18 18 23 22 25 22 20 21 24 26 27 28 29 29 29 30 31 32 34 34
15 12 8 7 5 3 2 2 6 9 8 11 11 9 11 12 15 18 21 21 21 23 20 19 20 22 24 24 26 27 26 26 27 28 29 30 31 32
13 9 6 4 4 5 6 7 10 9 9 7 10 12 13 14 16 18 20 21 14 16 17 27 22 27 26 24 26 26 29 30 30 30 31 32 32 32
9 6 6 5 3 2 3 3 7 8 9 11 12 13 15 16 20 19 18 19 21 26 27 28 25 28 25 25 26 29 31 31 30 29 28 29 29 30
9 7 4 2 1 4 6 6 8 10 11 11 12 15 16 16 16 18 20 23 22 24 20 20 23 24 24 25 28 30 29 27 27 27 27 28 29 30
7 5 2 5 6 6 6 8 9 10 13 15 12 13 14 17 18 16 17 16 16 21 19 19 18 22 26 31 22 20 23 24 27 31 32 31 31 32
4 3 4 5 5 6 7 4 7 12 13 12 14 17 16 16 14 11 11 14 15 13 4 8 20 18 10 15 13 22 26 25 28 29 30 30 30 30
4 5 6 5 7 6 7 9 11 12 10 15 15 13 14 13 12 11 11 13 16 18 22 15 17 22 15 21 20 21 27 31 28 29 29 27 26 25
3 5 5 4 6 8 9 9 9 9 12 10 10 12 13 15 16 18 18 18 18 26 31 24 17 19 22 23 23 26 27 31 29 30 26 26 26 26
4 2 5 8 8 8 6 7 6 7 7 8 10 12 13 17 19 19 22 24 25 26 23 19 23 27 24 25 26 33 28 27 30 29 26 25 27 24
6 6 8 7 7 6 5 4 5 6 7 9 11 13 14 15 17 17 20 22 23 24 21 19 17 21 27 28 27 31 30 16 27 29 27 31 29 27
5 7 7 7 6 5 5 6 7 8 8 10 11 12 13 14 17 19 21 19 16 21 27 30 22 22 26 30 28 28 28 30 29 31 26 31 33 29
5 5 6 6 6 7 8 10 11 12 12 14 13 12 14 15 18 21 18 18 20 23 23 26 25 23 22 21 26 32 27 28 32 30 28 27 31 29
4 5 5 6 8 10 11 12 12 15 17 17 16 16 16 17 18 20 21 20 21 23 25 25 22 19 11 12 24 20 27 28 30 30 28 26 29 35
7 7 8 9 10 11 13 14 16 17 18 18 19 19 18 16 18 19 20 20 22 25 25 25 23 20 14 16 18 36 25 27 25 29 31 29 31 34
9 9 10 11 12 13 15 17 18 19 19 21 22 22 21 19 21 22 22 25 27 24 22 25 27 28 32 31 16 26 28 25 25 28 31 28 28 28
10 11 12 13 14 16 18 19 21 22 23 23 23 23 23 22 23 24 24 25 26 26 28 31 31 26 24 23 19 28 32 32 29 26 27 30 26 8
13 14 15 16 17 18 20 21 22 24 25 25 25 26 25 24 26 25 27 28 28 28 28 27 26 26 25 23 26 27 31 32 31 29 28 22 27 33
Wind_Direction
220 215 211 205 197 194 193 174 199 174 197 214 182 220 228 240 268 289 302 307 308 299 302 302 301 298 293 289 286 283 281 279 277 276 274 272 274 269
207 197 194 184 182 175 165 169 176 193 150 173 144 248 274 283 286 297 303 305 296 297 300 299 297 294 290 287 284 281 279 279 278 276 274 274 270 271
185 182 168 166 160 158 153 161 160 176 196 243 249 265 284 285 294 300 304 305 299 302 302 299 297 293 290 287 284 281 280 279 278 276 276 275 273 272
167 158 153 157 158 163 195 191 196 218 216 245 267 263 274 289 299 300 302 303 297 300 304 301 298 294 290 286 284 282 281 280 277 276 275 275 275 272
152 153 150 155 153 168 189 200 223 232 269 253 264 280 289 295 299 298 299 301 300 306 303 300 296 293 291 289 287 285 282 279 278 277 276 274 272 271
147 149 153 158 161 176 192 250 262 261 254 256 266 267 272 289 297 300 308 309 305 302 297 295 294 292 290 288 288 285 283 281 279 277 274 273 272 270
138 137 148 149 156 163 198 243 261 248 247 256 265 271 287 299 304 305 300 305 305 297 293 297 301 297 291 290 286 286 286 285 281 278 275 273 271 269
129 137 136 100 178 188 199 224 252 262 262 264 274 286 300 297 296 300 304 306 308 304 295 293 296 291 291 290 289 289 286 283 281 280 277 274 273 271
112 101 146 149 137 209 231 257 271 280 279 285 284 287 292 297 300 301 298 294 290 291 293 294 296 289 293 289 287 286 285 285 284 283 282 278 273 271
130 137 130 140 151 323 323 303 288 291 288 287 287 293 297 300 295 294 291 292 292 291 293 286 296 290 293 287 285 285 284 282 284 284 283 281 277 274
119 94 54 341 337 315 304 290 282 284 300 303 297 293 293 293 292 294 291 299 298 294 296 279 288 298 297 288 282 280 280 283 284 285 284 281 278 276
82 14 342 338 326 314 311 295 297 302 310 307 304 304 305 305 303 289 285 281 288 300 286 280 298 314 308 289 281 290 289 286 288 288 287 284 280 279
20 3 352 331 309 318 315 308 302 306 298 303 306 308 312 312 310 301 288 275 274 269 281 292 290 293 281 290 294 292 292 293 293 292 289 286 281 274
359 339 337 328 325 316 308 310 308 300 300 306 306 307 311 313 316 316 313 303 287 281 301 289 272 278 278 283 287 295 294 291 289 287 287 289 285 279
350 352 336 327 323 313 319 312 304 301 298 296 297 298 300 310 317 321 322 322 314 308 305 299 278 277 270 271 276 289 295 299 291 283 286 282 280 279
322 318 324 323 322 315 319 319 314 303 292 292 296 301 309 316 315 321 318 324 313 314 320 317 297 284 268 269 273 278 285 279 289 287 285 285 281 272
309 321 334 342 343 342 342 332 328 327 319 315 312 309 307 311 313 322 320 312 293 296 303 316 306 288 275 274 275 272 277 281 281 284 286 282 282 279
325 338 333 334 331 335 336 333 333 331 326 320 312 305 303 307 310 317 308 300 295 295 294 298 301 302 299 284 267 269 276 277 286 290 286 276 282 282
353 341 335 336 332 331 329 323 315 320 324 322 314 310 308 305 306 305 305 303 298 297 297 298 294 293 295 293 296 282 280 286 290 291 287 280 279 285
346 336 333 331 328 324 321 320 320 321 322 322 318 314 309 300 302 300 298 296 297 300 303 303 298 292 283 291 298 299 290 274 279 287 291 289 282 285
331 324 323 320 318 321 321 319 318 318 317 314 315 315 310 306 300 296 294 302 305 299 294 295 295 302 296 293 289 293 301 295 282 274 282 289 293 296
316 313 313 313 316 319 320 320 319 320 321 320 319 313 309 307 297 295 294 293 297 296 291 293 298 299 299 292 289 295 302 304 301 291 280 268 268 280
311 309 308 310 312 316 317 317 315 315 317 315 315 311 308 302 301 293 290 291 290 291 290 293 303 305 296 294 296 296 299 303 306 308 299 290 281 275